Wind_Speed
102 104 107 110 111 112 113 117 115 116 111 104 99 93 93 92 85 86 83 72 62 57 53 53 51 49 46 41 39 35 29 33 53 62 62 61 66 66
107 110 111 112 113 115 116 112 115 106 103 93 91 91 92 86 85 84 74 66 62 56 50 51 51 48 45 41 35 26 21 30 55 60 63 65 69 68
109 109 109 113 111 112 110 106 102 97 91 89 89 90 86 84 84 74 67 61 57 53 51 50 49 47 42 38 31 22 19 29 51 60 64 63 71 74
106 111 106 107 110 104 104 99 94 93 88 88 88 85 83 78 71 66 62 56 52 51 50 48 47 45 41 34 29 25 23 37 45 55 59 68 72 71
107 99 100 98 100 99 96 89 88 86 86 86 82 80 73 68 65 63 59 53 50 50 51 49 47 41 36 34 29 26 28 31 38 47 57 66 72 73
96 101 102 99 94 93 88 83 84 83 80 80 76 71 64 63 60 57 55 51 50 51 49 48 45 40 33 33 32 30 32 35 39 43 50 54 64 75
93 89 83 83 85 83 81 80 79 78 79 73 68 62 60 61 57 55 53 52 52 51 49 45 41 39 39 39 37 37 39 39 41 46 50 52 57 63
86 82 79 81 78 76 78 74 78 75 69 64 59 57 58 57 55 54 53 52 50 49 45 44 44 45 48 48 49 49 50 49 50 52 53 56 59 63
80 77 73 73 74 74 73 70 68 65 60 56 56 57 57 55 52 50 49 47 46 49 51 52 53 55 56 56 56 56 55 56 58 60 62 64 67 70
70 70 71 70 68 72 69 66 63 59 56 54 53 52 51 47 45 45 46 49 52 56 59 61 61 62 63 61 60 60 61 63 65 68 70 73 75 76
67 62 63 64 70 62 64 62 58 56 54 53 51 48 47 47 47 49 52 55 59 61 63 65 65 65 66 67 68 69 71 72 74 74 74 74 74 73
59 60 63 66 61 59 61 59 57 54 53 51 51 52 52 53 55 57 59 62 63 66 68 69 68 69 71 73 75 76 76 76 76 73 70 69 69 69
60 62 64 57 57 59 59 56 57 57 56 56 57 58 57 57 59 61 64 66 68 71 73 74 75 76 78 79 77 73 71 69 68 67 66 66 66 68
59 62 56 57 58 60 58 57 58 59 58 57 57 57 57 58 61 65 67 70 73 76 79 80 82 82 76 69 67 63 62 63 62 59 59 60 62 65
54 54 55 57 60 59 59 60 62 61 60 59 59 58 59 61 65 69 72 76 79 81 84 85 84 75 65 63 64 64 62 60 57 56 58 61 63 64
52 55 56 59 61 61 60 61 61 61 60 61 61 61 63 66 69 73 78 82 84 85 84 80 71 67 64 62 62 61 58 58 55 55 58 58 57 56
53 56 58 61 63 61 57 59 63 62 60 62 62 63 66 70 74 79 83 85 84 83 75 67 67 68 65 62 59 56 54 54 54 54 51 52 48 45
57 60 62 65 63 61 61 64 65 66 63 64 64 67 70 75 80 83 84 84 81 75 70 67 63 63 64 62 58 56 53 52 50 49 46 44 43 35
60 63 67 67 64 64 67 66 68 65 65 65 67 71 75 81 85 84 84 78 75 71 68 63 61 60 59 58 56 52 51 49 47 45 38 38 36 33
66 67 68 67 66 67 68 68 67 66 67 68 71 75 80 84 84 83 76 72 70 68 65 59 56 55 54 55 56 50 46 41 41 39 33 31 31 31
68 66 65 65 66 68 69 68 66 67 69 72 76 80 83 84 82 77 70 68 65 64 61 55 52 51 51 51 53 51 40 35 38 33 26 19 19 20
61 61 64 66 67 66 68 67 68 69 72 76 79 82 82 81 76 70 68 65 62 58 57 55 52 52 50 49 49 47 35 33 33 27 23 17 12 11
61 63 64 65 66 66 66 68 70 72 75 79 81 81 80 75 69 68 65 63 58 56 55 55 53 51 48 45 45 45 32 31 29 25 22 24 20 15
Wind_Direction
286 287 288 290 292 293 295 297 299 299 300 304 304 305 305 306 306 307 307 306 304 305 306 307 308 308 311 317 315 310 280 231 211 219 221 229 226 227
286 288 289 291 292 293 296 296 298 299 302 302 303 303 304 304 304 305 304 303 304 304 305 308 310 313 315 320 320 317 284 222 216 217 219 222 229 225
287 288 289 291 292 293 295 295 298 301 301 301 301 302 302 302 303 302 301 302 301 302 305 309 311 313 315 316 315 310 264 230 223 220 223 230 231 231
286 287 290 289 291 292 294 297 299 299 300 300 301 300 301 301 302 300 299 299 298 300 304 308 309 309 309 308 306 297 262 239 236 232 233 232 236 236
285 286 288 290 290 294 296 297 298 297 298 298 299 299 299 300 299 299 298 297 296 299 304 305 305 303 300 302 301 295 281 265 251 244 238 235 239 236
284 287 288 290 292 293 296 295 295 296 296 297 298 298 298 300 299 298 298 296 296 298 302 300 300 297 294 294 295 290 275 274 267 267 258 253 247 242
289 288 290 291 293 293 293 293 294 294 297 299 298 297 299 300 298 297 296 295 297 299 298 297 294 293 293 292 288 282 278 273 269 267 265 261 256 251
288 289 291 291 290 290 292 294 294 297 298 298 297 298 298 297 296 295 295 297 297 297 296 295 294 294 292 290 288 285 281 278 275 273 272 268 264 261
285 286 288 286 288 290 292 296 297 299 299 299 299 297 296 296 294 293 294 297 298 297 298 298 297 295 294 292 290 287 284 282 281 280 278 275 272 267
283 283 284 286 287 289 295 298 303 303 303 301 300 299 297 296 296 297 299 299 299 300 300 299 298 296 295 293 291 289 287 284 282 281 279 276 274 271
280 282 281 283 292 293 299 303 304 303 301 300 298 297 296 295 296 298 300 300 301 301 300 299 298 296 294 294 293 292 291 289 287 284 281 278 276 272
278 278 283 290 289 295 301 302 304 302 296 295 294 294 294 296 297 297 299 302 303 304 303 301 299 297 295 295 295 293 291 289 287 285 283 280 278 276
277 281 290 286 291 295 299 300 303 303 299 295 293 293 294 294 295 298 301 302 303 303 303 302 300 298 297 296 294 291 288 288 286 286 284 282 280 277
281 283 282 287 291 295 298 299 303 301 299 297 297 296 295 295 298 300 302 303 304 304 304 302 301 301 300 295 291 289 288 289 289 288 285 280 278 275
280 279 284 289 293 294 298 300 300 298 297 297 298 297 298 299 301 303 304 305 305 304 303 303 302 302 298 294 292 290 291 290 289 288 284 280 278 276
276 280 285 289 292 293 297 297 297 298 297 297 298 298 299 301 303 304 305 305 305 304 303 304 303 301 299 296 293 293 293 290 289 285 284 283 280 278
276 282 285 290 291 292 295 296 299 298 298 298 298 299 300 302 304 305 306 306 305 304 305 305 304 302 299 297 295 294 293 292 290 288 284 282 283 284
280 284 286 291 292 293 296 294 297 299 299 299 301 301 302 304 306 307 307 307 305 305 306 305 303 301 298 298 296 296 295 293 292 287 286 287 286 289
278 281 285 288 291 292 293 296 297 298 300 300 301 303 305 307 308 309 308 307 305 305 305 305 303 300 298 296 294 297 296 297 292 287 290 289 291 290
276 281 286 287 288 291 295 296 298 300 300 302 303 305 307 308 310 309 308 305 306 306 305 305 303 300 298 296 296 298 297 293 284 286 290 294 295 294
281 284 285 287 290 293 296 297 299 299 302 303 304 306 308 309 310 308 306 306 307 306 305 304 302 299 298 297 298 298 298 286 283 286 287 285 288 298
283 285 286 289 292 294 294 297 299 300 301 303 305 307 309 310 308 307 307 307 307 306 305 304 302 300 298 298 296 293 292 279 278 278 277 273 254 291
283 284 287 289 290 291 296 297 298 300 302 304 306 308 309 308 308 307 308 308 308 307 305 304 302 300 298 297 294 289 287 273 266 259 262 274 257 242
Height
10663 10658 10651 10644 10637 10630 10623 10616 10609 10600 10590 10578 10568 10559 10551 10541 10533 10525 10517 10509 10503 10498 10491 10484 10478 10469 10462 10455 10448 10437 10433 10434 10448 10458 10468 10476 10481 10488
10643 10636 10630 10623 10617 10610 10604 10596 10588 10580 10572 10562 10552 10542 10534 10525 10516 10509 10501 10494 10487 10482 10478 10472 10464 10456 10449 10444 10439 10433 10429 10430 10438 10448 10456 10462 10466 10473
10624 10617 10610 10605 10597 10592 10584 10576 10568 10559 10551 10542 10534 10525 10517 10509 10501 10493 10487 10480 10474 10468 10465 10460 10453 10447 10442 10437 10434 10430 10428 10430 10435 10441 10446 10451 10453 10459
10603 10599 10592 10585 10579 10571 10564 10556 10548 10541 10532 10525 10516 10507 10500 10493 10485 10477 10472 10466 10461 10456 10453 10449 10444 10438 10434 10432 10429 10427 10425 10426 10429 10434 10436 10439 10441 10447
10585 10578 10573 10566 10559 10552 10545 10537 10530 10523 10515 10508 10499 10490 10483 10477 10469 10462 10457 10453 10448 10444 10441 10437 10433 10430 10426 10423 10421 10419 10418 10418 10419 10421 10425 10427 10428 10433
10565 10559 10554 10546 10540 10533 10526 10519 10512 10505 10497 10491 10482 10473 10466 10460 10454 10449 10444 10439 10435 10433 10430 10425 10421 10418 10416 10415 10412 10411 10411 10410 10412 10412 10413 10413 10413 10415
10546 10539 10532 10527 10521 10514 10507 10501 10494 10487 10480 10472 10465 10458 10451 10445 10440 10435 10430 10426 10422 10419 10417 10413 10409 10405 10403 10403 10403 10402 10401 10399 10399 10398 10397 10396 10396 10398
10526 10521 10515 10509 10504 10496 10490 10484 10477 10471 10463 10455 10448 10442 10437 10432 10426 10421 10417 10413 10409 10405 10402 10399 10396 10393 10390 10388 10387 10384 10383 10382 10381 10379 10377 10376 10375 10374
10508 10502 10498 10492 10487 10481 10475 10468 10462 10455 10447 10440 10434 10428 10422 10418 10413 10408 10404 10400 10395 10390 10387 10385 10379 10375 10373 10370 10367 10364 10362 10359 10356 10354 10352 10351 10349 10347
10489 10485 10481 10476 10470 10465 10458 10452 10445 10438 10433 10427 10421 10415 10410 10405 10400 10395 10392 10388 10383 10378 10372 10367 10362 10357 10351 10349 10346 10343 10340 10337 10334 10330 10327 10323 10319 10315
10473 10469 10465 10461 10457 10450 10444 10438 10432 10426 10419 10413 10408 10403 10398 10393 10390 10384 10379 10375 10369 10363 10356 10349 10344 10338 10331 10326 10321 10317 10312 10307 10303 10299 10295 10290 10286 10284
10458 10455 10451 10446 10441 10436 10430 10425 10419 10413 10407 10401 10397 10392 10387 10381 10376 10371 10365 10359 10353 10345 10337 10329 10323 10317 10311 10304 10297 10291 10285 10279 10274 10269 10265 10261 10257 10254
10443 10440 10437 10432 10428 10422 10418 10412 10406 10399 10394 10388 10383 10378 10373 10367 10361 10355 10348 10341 10335 10327 10317 10309 10301 10294 10286 10278 10271 10265 10258 10253 10248 10244 10239 10235 10232 10228
10429 10426 10421 10418 10413 10408 10404 10398 10392 10386 10379 10373 10368 10362 10356 10351 10344 10337 10330 10322 10315 10306 10296 10286 10276 10268 10260 10252 10244 10239 10236 10231 10226 10223 10219 10214 10208 10204
10414 10411 10407 10404 10400 10395 10390 10385 10378 10372 10365 10358 10352 10346 10340 10334 10326 10318 10311 10302 10293 10284 10272 10262 10251 10241 10234 10227 10220 10217 10215 10211 10208 10203 10197 10190 10185 10181
10399 10396 10393 10390 10385 10381 10376 10370 10363 10357 10351 10344 10337 10331 10324 10317 10308 10300 10290 10280 10270 10260 10250 10239 10227 10218 10212 10206 10199 10196 10195 10189 10188 10183 10174 10167 10161 10158
10385 10382 10378 10375 10370 10365 10361 10355 10347 10341 10335 10328 10322 10315 10308 10299 10290 10280 10269 10257 10246 10235 10227 10220 10210 10197 10188 10184 10180 10178 10174 10171 10165 10158 10153 10146 10144 10142
10370 10366 10362 10357 10353 10348 10344 10338 10331 10325 10319 10312 10305 10297 10290 10280 10270 10260 10247 10234 10222 10213 10206 10200 10192 10182 10170 10162 10160 10157 10155 10150 10145 10137 10134 10130 10126 10128
10354 10350 10346 10342 10338 10333 10328 10323 10317 10310 10303 10295 10287 10278 10269 10259 10248 10237 10225 10213 10202 10194 10187 10182 10174 10164 10155 10146 10142 10143 10136 10131 10123 10120 10119 10115 10112 10111
10337 10334 10331 10326 10321 10316 10312 10306 10300 10294 10286 10277 10269 10259 10250 10238 10228 10216 10205 10195 10185 10175 10167 10163 10156 10146 10139 10130 10123 10125 10121 10115 10109 10107 10106 10102 10099 10096
10321 10318 10314 10310 10305 10300 10295 10288 10283 10276 10269 10260 10250 10240 10230 10218 10207 10196 10186 10178 10169 10159 10149 10145 10139 10131 10123 10117 10109 10104 10106 10101 10096 10094 10095 10093 10090 10086
10305 10303 10299 10294 10290 10285 10278 10272 10266 10259 10251 10242 10232 10222 10210 10199 10188 10178 10169 10160 10152 10144 10134 10128 10123 10116 10110 10103 10095 10091 10092 10088 10084 10083 10082 10083 10081 10078
10289 10287 10284 10280 10275 10268 10263 10256 10249 10242 10233 10223 10213 10202 10191 10179 10170 10160 10151 10143 10135 10128 10120 10111 10106 10099 10094 10089 10082 10076 10079 10076 10074 10073 10073 10070 10071 10071